Henderson, NV

11:38 PM PDT on April 26, 2018 (GMT -0700)
Henderson

Weather History for KHND - May, 2013

Change the Weather History Date:

Sunday, May 5, 2013

  Actual Average (KLAS) Record (KLAS)
Temperature  
Mean Temperature 72 °F -  
Max Temperature 79 °F 83 °F 108 °F (1947)
Min Temperature 63 °F 58 °F 40 °F (1950)
Cooling Degree Days 7    
Growing Degree Days 22 (Base 50)    
Moisture  
Dew Point 21 °F    
Average Humidity 15    
Maximum Humidity 26    
Minimum Humidity 10    
Precipitation  
Precipitation 0.00 in - - ()
Sea Level Pressure  
Sea Level Pressure 29.70 in    
Wind  
Wind Speed 14 mph (SSE)    
Max Wind Speed 24 mph    
Max Gust Speed 34 mph    
Visibility 10 miles    
Events      
Averages and records for this station are not official NWS values.
T = Trace of Precipitation, MM = Missing Value Source: NWS Daily Summary

Daily Weather History Graph

Daily Weather History Graph

Search for Another Location

Airport or City:

Astronomy

May. 05, 2013 Rise Set
Actual Time 5:43 AM PDT 7:31 PM PDT
Civil Twilight 5:15 AM PDT 7:59 PM PDT
Nautical Twilight 4:42 AM PDT 8:32 PM PDT
Astronomical Twilight 4:06 AM PDT 9:08 PM PDT
Moon 3:08 AM PDT (5/5) 3:42 PM PDT (5/5)
Length of Visible Light 14h 43m
Length of Day
13h 47m
Waning Crescent, 17% of the Moon is Illuminated
May 5
Waning Crescent
May 9
New
May 17
First Quarter
May 24
Full
May 31
Last Quarter

Hourly Weather History & Observations

Time (PDT) Temp. Dew Point Humidity Pressure Visibility Wind Dir Wind Speed Gust Speed Precip Events Conditions
12:56 AM 70.0 °F 23.0 °F 17% 29.63 in 10.0 mi SSE 9.2 mph - N/A   Clear
1:56 AM 68.9 °F 24.1 °F 18% 29.62 in 10.0 mi SSW 9.2 mph - N/A   Clear
2:56 AM 70.0 °F 24.1 °F 18% 29.61 in 10.0 mi South 13.8 mph - N/A   Clear
3:56 AM 70.0 °F 23.0 °F 17% 29.61 in 10.0 mi South 13.8 mph - N/A   Clear
4:56 AM 68.0 °F 21.0 °F 17% 29.63 in 10.0 mi South 10.4 mph - N/A   Clear
5:56 AM 68.0 °F 19.0 °F 15% 29.65 in 10.0 mi SSE 11.5 mph - N/A   Clear
6:56 AM 68.9 °F 17.1 °F 14% 29.68 in 10.0 mi South 12.7 mph - 0.00 in   Clear
7:56 AM 70.9 °F 19.0 °F 14% 29.70 in 10.0 mi South 13.8 mph - N/A   Clear
8:56 AM 74.8 °F 18.1 °F 12% 29.71 in 10.0 mi SSE 15.0 mph 21.9 mph N/A   Clear
9:56 AM 77.9 °F 22.1 °F 13% 29.73 in 10.0 mi SE 12.7 mph 20.7 mph N/A   Clear
10:56 AM 79.0 °F 21.0 °F 12% 29.73 in 10.0 mi SSE 20.7 mph 26.5 mph N/A   Clear
11:56 AM 74.8 °F 21.0 °F 13% 29.75 in 10.0 mi SSE 24.2 mph 29.9 mph N/A   Clear
12:56 PM 75.9 °F 25.2 °F 15% 29.75 in 10.0 mi SSE 20.7 mph 24.2 mph N/A   Clear
1:56 PM 77.9 °F 20.1 °F 12% 29.74 in 10.0 mi SSE 23.0 mph - N/A   Clear
2:56 PM 79.0 °F 21.0 °F 12% 29.73 in 10.0 mi SSE 19.6 mph 23.0 mph N/A   Partly Cloudy
3:56 PM 79.9 °F 19.0 °F 10% 29.70 in 10.0 mi SE 21.9 mph 28.8 mph N/A   Clear
4:56 PM 79.9 °F 19.0 °F 10% 29.70 in 10.0 mi SE 18.4 mph 26.5 mph N/A   Clear
5:56 PM 77.9 °F 18.1 °F 11% 29.71 in 10.0 mi SSE 18.4 mph 34.5 mph N/A   Clear
6:56 PM 74.8 °F 20.1 °F 13% 29.72 in 10.0 mi SSE 17.3 mph 25.3 mph N/A   Clear
7:56 PM 72.9 °F 21.0 °F 14% 29.73 in 10.0 mi SSE 17.3 mph 21.9 mph N/A   Clear
8:56 PM 70.9 °F 19.0 °F 14% 29.75 in 10.0 mi SSE 10.4 mph - N/A   Clear
9:56 PM 68.9 °F 20.1 °F 16% 29.75 in 10.0 mi South 10.4 mph - N/A   Clear
10:56 PM 65.8 °F 24.1 °F 21% 29.76 in 10.0 mi South 10.4 mph - N/A   Clear
11:56 PM 63.9 °F 28.0 °F 26% 29.77 in 10.0 mi SSE 9.2 mph - N/A   Clear